Corning, AR

9:19 AM CDT on September 26, 2017 (GMT -0500)
Corning

Weather History for K4M9 - December, 2012

Change the Weather History Date:

Wednesday, December 5, 2012

  Actual Average (KARG) Record (KARG)
Temperature  
Mean Temperature 48 °F -  
Max Temperature 60 °F 50 °F 75 °F (1998)
Min Temperature 37 °F 35 °F 24 °F (2002)
Degree Days  
Heating Degree Days 16    
Moisture  
Dew Point 39 °F    
Average Humidity 73    
Maximum Humidity 93    
Minimum Humidity 48    
Precipitation  
Precipitation 0.00 in - - ()
Sea Level Pressure  
Sea Level Pressure 30.26 in    
Wind  
Wind Speed 7 mph (NE)    
Max Wind Speed 12 mph    
Max Gust Speed -    
Visibility 8 miles    
Events      
Averages and records for this station are not official NWS values.
T = Trace of Precipitation, MM = Missing Value Source: NWS Daily Summary

Daily Weather History Graph

Daily Weather History Graph

Search for Another Location

Airport or City:

Trip Planner

Search our weather history database for the weather conditions in past years. The results will help you decide how hot, cold, wet, or windy it might be!

Date:

Astronomy

Dec. 05, 2012 Rise Set
Actual Time 6:59 AM CST 4:47 PM CST
Civil Twilight 6:31 AM CST 5:15 PM CST
Nautical Twilight 5:59 AM CST 5:47 PM CST
Astronomical Twilight 5:27 AM CST 6:18 PM CST
Moon 11:28 PM CST (12/5) 11:31 AM CST (12/5)
Length of Visible Light 10h 44m
Length of Day
9h 47m
Waning Gibbous, 59% of the Moon is Illuminated
Dec 5
Waning Gibbous
Dec 6
Last Quarter
Dec 13
New
Dec 19
First Quarter
Dec 28
Full

Hourly Weather History & Observations

Time (CST) Temp. Windchill Dew Point Humidity Pressure Visibility Wind Dir Wind Speed Gust Speed Precip Events Conditions
12:15 AM 41.0 °F 36.4 °F 37.4 °F 87% 30.29 in 10.0 mi NNE 6.9 mph - N/A   Unknown
12:35 AM 42.8 °F 38.0 °F 37.4 °F 81% 30.29 in 10.0 mi North 8.1 mph - N/A   Unknown
12:55 AM 41.0 °F 37.1 °F 37.4 °F 87% 30.29 in 10.0 mi North 5.8 mph - N/A   Unknown
1:15 AM 42.8 °F 38.6 °F 37.4 °F 81% 30.29 in 10.0 mi North 6.9 mph - N/A   Unknown
1:35 AM 42.8 °F 38.0 °F 37.4 °F 81% 30.29 in 10.0 mi North 8.1 mph - N/A   Unknown
1:55 AM 41.0 °F 35.8 °F 37.4 °F 87% 30.29 in 10.0 mi North 8.1 mph - N/A   Unknown
2:15 AM 41.0 °F 36.4 °F 37.4 °F 87% 30.29 in 10.0 mi North 6.9 mph - N/A   Unknown
2:35 AM 41.0 °F 38.0 °F 37.4 °F 87% 30.29 in 10.0 mi North 4.6 mph - N/A   Unknown
2:55 AM 41.0 °F - 37.4 °F 87% 30.29 in 10.0 mi Calm Calm - N/A   Unknown
3:15 AM 41.0 °F 37.1 °F 37.4 °F 87% 30.30 in 10.0 mi North 5.8 mph - N/A   Unknown
3:35 AM 41.0 °F 36.4 °F 37.4 °F 87% 30.29 in 10.0 mi North 6.9 mph - N/A   Unknown
3:55 AM 39.2 °F 34.2 °F 35.6 °F 87% 30.30 in 10.0 mi North 6.9 mph - N/A   Unknown
4:15 AM 39.2 °F 33.6 °F 35.6 °F 87% 30.30 in 10.0 mi North 8.1 mph - N/A   Unknown
4:35 AM 39.2 °F 34.2 °F 35.6 °F 87% 30.31 in 10.0 mi North 6.9 mph - N/A   Unknown
4:55 AM 39.2 °F 33.6 °F 35.6 °F 87% 30.33 in 10.0 mi North 8.1 mph - N/A   Unknown
5:15 AM 41.0 °F 37.1 °F 35.6 °F 81% 30.34 in 10.0 mi North 5.8 mph - N/A   Unknown
5:35 AM 39.2 °F 34.2 °F 35.6 °F 87% 30.33 in 10.0 mi NNE 6.9 mph - N/A   Unknown
5:55 AM 39.2 °F 34.2 °F 35.6 °F 87% 30.34 in 10.0 mi NE 6.9 mph - N/A   Unknown
6:15 AM 39.2 °F 33.6 °F 35.6 °F 87% 30.34 in 10.0 mi NNE 8.1 mph - N/A   Unknown
6:35 AM 39.2 °F 35.0 °F 35.6 °F 87% 30.34 in 10.0 mi NNE 5.8 mph - N/A   Unknown
6:55 AM 37.4 °F 33.8 °F 35.6 °F 93% 30.35 in 10.0 mi ENE 4.6 mph - N/A   Unknown
8:55 AM 44.6 °F 38.8 °F 39.2 °F 81% 30.35 in 10.0 mi NNE 11.5 mph - N/A   Unknown
9:15 AM 46.4 °F 41.9 °F 41.0 °F 81% 30.36 in 10.0 mi NNE 9.2 mph - N/A   Unknown
9:35 AM 48.2 °F - 41.0 °F 76% 30.36 in 10.0 mi NE 9.2 mph - N/A   Unknown
9:55 AM 50.0 °F - 41.0 °F 71% 30.36 in 10.0 mi NE 8.1 mph - N/A   Unknown
10:15 AM 51.8 °F - 41.0 °F 67% 30.35 in 10.0 mi NE 11.5 mph - N/A   Unknown
10:55 AM 53.6 °F - 42.8 °F 67% 30.33 in 10.0 mi NE 10.4 mph - N/A   Unknown
11:15 AM 53.6 °F - 42.8 °F 67% 30.33 in 10.0 mi NNE 9.2 mph - N/A   Unknown
11:35 AM 55.4 °F - 42.8 °F 63% 30.31 in 10.0 mi NE 9.2 mph - N/A   Unknown
11:55 AM 55.4 °F - 42.8 °F 63% 30.30 in 7.0 mi NE 10.4 mph - N/A   Unknown
12:15 PM 57.2 °F - 42.8 °F 59% 30.29 in 10.0 mi NE 10.4 mph - N/A   Unknown
12:35 PM 57.2 °F - 42.8 °F 59% 30.28 in 8.0 mi NNE 9.2 mph - N/A   Unknown
12:55 PM 57.2 °F - 42.8 °F 59% 30.27 in 10.0 mi NE 9.2 mph - N/A   Unknown
1:15 PM 59.0 °F - 42.8 °F 55% 30.27 in 5.0 mi NNE 6.9 mph - N/A   Haze
1:35 PM 59.0 °F - 42.8 °F 55% 30.25 in 8.0 mi NE 9.2 mph - N/A   Unknown
1:55 PM 59.0 °F - 41.0 °F 51% 30.25 in 5.0 mi NNE 9.2 mph - N/A   Haze
2:15 PM 59.0 °F - 42.8 °F 55% 30.25 in 2.0 mi NE 6.9 mph - N/A   Haze
2:35 PM 60.8 °F - 41.0 °F 48% 30.24 in 2.0 mi NNE 9.2 mph - N/A   Haze
2:55 PM 59.0 °F - 39.2 °F 48% 30.24 in 0.8 mi ENE 10.4 mph - N/A   Haze
3:15 PM 59.0 °F - 39.2 °F 48% 30.23 in 1.5 mi East 9.2 mph - N/A   Haze
3:35 PM 57.2 °F - 39.2 °F 51% 30.22 in 1.0 mi ENE 9.2 mph - N/A   Haze
3:55 PM 57.2 °F - 41.0 °F 55% 30.21 in 1.2 mi ENE 10.4 mph - N/A   Haze
4:15 PM 55.4 °F - 41.0 °F 58% 30.21 in 1.5 mi ENE 10.4 mph - N/A   Haze
4:35 PM 53.6 °F - 41.0 °F 62% 30.21 in 2.5 mi ENE 9.2 mph - N/A   Haze
4:55 PM 51.8 °F - 42.8 °F 71% 30.21 in 2.0 mi ENE 8.1 mph - N/A   Haze
5:15 PM 51.8 °F - 42.8 °F 71% 30.21 in 10.0 mi ENE 6.9 mph - N/A   Unknown
5:35 PM 50.0 °F - 41.0 °F 71% 30.21 in 10.0 mi NE 8.1 mph - N/A   Unknown
5:55 PM 50.0 °F - 41.0 °F 71% 30.21 in 9.0 mi NNE 6.9 mph - N/A   Unknown
6:15 PM 50.0 °F - 41.0 °F 71% 30.21 in 10.0 mi North 6.9 mph - N/A   Unknown
6:35 PM 48.2 °F - 41.0 °F 76% 30.20 in 10.0 mi NE 6.9 mph - N/A   Unknown
6:55 PM 48.2 °F - 41.0 °F 76% 30.20 in 9.0 mi NE 6.9 mph - N/A   Unknown
7:15 PM 50.0 °F - 39.2 °F 66% 30.19 in 10.0 mi NNE 8.1 mph - N/A   Unknown
7:35 PM 48.2 °F - 39.2 °F 71% 30.19 in 9.0 mi NE 6.9 mph - N/A   Unknown
7:55 PM 48.2 °F - 39.2 °F 71% 30.19 in 8.0 mi NE 5.8 mph - N/A   Unknown
8:15 PM 48.2 °F - 39.2 °F 71% 30.19 in 10.0 mi NNE 6.9 mph - N/A   Unknown
8:55 PM 48.2 °F - 39.2 °F 71% 30.18 in 10.0 mi NNE 6.9 mph - N/A   Unknown
9:15 PM 46.4 °F 42.4 °F 39.2 °F 76% 30.17 in 9.0 mi NE 8.1 mph - N/A   Unknown
9:35 PM 44.6 °F 40.7 °F 39.2 °F 81% 30.16 in 10.0 mi NE 6.9 mph - N/A   Unknown
9:55 PM 42.8 °F 38.6 °F 39.2 °F 87% 30.16 in 10.0 mi ENE 6.9 mph - N/A   Unknown
10:15 PM 42.8 °F 38.6 °F 37.4 °F 81% 30.15 in 10.0 mi ENE 6.9 mph - N/A   Unknown
10:35 PM 44.6 °F 39.7 °F 37.4 °F 76% 30.15 in 10.0 mi ENE 9.2 mph - N/A   Unknown
10:55 PM 44.6 °F 40.7 °F 37.4 °F 76% 30.15 in 10.0 mi ENE 6.9 mph - N/A   Unknown
11:15 PM 44.6 °F 40.7 °F 37.4 °F 76% 30.14 in 10.0 mi ENE 6.9 mph - N/A   Unknown